Location: Elbingerode
(51.6587°N, 10.2779°E)
Time: 02:21:34
(UTC+00:00)

Daily predictions for brighter satellites

Satellite Brightness Start Highest point End
(mag) Time Altitude Azimuth Time Altitude Azimuth Time Altitude Azimuth
NOSS 3-2 (C) 4.5 03:10:03 49° NNE 03:10:25 49° NNE 03:18:11 10° ESE
Lacrosse 5 rocket 4.1 03:19:20 18° ENE 03:19:20 18° ENE 03:20:33 10° ENE
ATLAS 3B R/B 3.6 03:21:00 37° NNE 03:21:25 37° NNE 03:27:39 10° E
NOSS 3-1 (A) 4.4 03:27:31 42° NNE 03:27:31 42° NNE 03:32:18 10° NE
CZ-2C R/B 4.4 03:23:29 10° NNE 03:25:27 23° NNE 03:25:27 23° NNE
NOSS 3-2 (A) 4.0 03:32:08 67° N 03:32:53 71° NE 03:41:05 10° SE
USA 215 3.2 03:32:33 10° ESE 03:38:26 74° SE 03:38:26 74° SE
CENTAUR R/B 3.5 03:43:35 43° NNW 03:46:02 58° NNE 03:54:28 10° ESE
Cosmos 2263 Rocket 3.5 03:50:46 28° N 03:52:43 36° NE 03:57:53 10° ESE
Cosmos 1656 3.9 03:58:05 64° NE 03:58:05 64° NE 04:02:46 10° NNE
COSMO-SKYMED 1 4.1 03:56:32 10° SSE 03:59:00 32° SE 03:59:00 32° SE
USA 238 DEB 3.7 04:08:11 62° WNW 04:09:31 81° SW 04:16:55 10° SE
USA 238 3.7 04:08:16 62° WNW 04:09:37 82° SW 04:17:02 10° SE
Cosmos 2369 3.8 04:16:57 40° S 04:19:03 74° ESE 04:24:48 10° NNE
Cosmos 773 Rocket 4.2 04:18:31 34° S 04:20:47 69° ESE 04:26:03 10° NNE
Cosmos 2341 Rocket 4.4 04:14:57 10° N 04:21:13 63° ENE 04:27:23 10° SSE
Meteor 2-15 Rocket 4.4 04:25:23 58° WNW 04:25:23 58° WNW 04:31:10 10° N
Cosmos 2327 Rocket 4.3 04:20:51 10° NNW 04:27:07 68° W 04:33:13 10° S
NOSS 2-2 (D) 4.1 04:28:04 43° SE 04:28:23 44° SE 04:32:20 10° NE
CZ-4B R/B 4.0 04:24:25 10° NNE 04:27:12 38° N 04:27:12 38° N
Cosmos 1943 Rocket 4.4 04:30:37 12° NNW 04:30:37 12° NNW 04:32:20 10° N
SL-4 R/B 3.4 04:33:38 26° SSE 04:33:38 26° SSE 04:35:26 10° SE
Nadezhda 1 Rocket 3.8 04:26:29 10° S 04:32:34 84° W 04:38:42 10° N
Meteor 2-17 Rocket 4.3 04:28:26 10° NNW 04:34:34 86° W 04:40:38 10° S
FENGYUN 3A 4.1 04:31:09 10° NNE 04:36:31 61° ESE 04:41:52 10° S
NOSS 3-1 (C) 4.5 04:38:00 30° NW 04:39:25 33° N 04:45:53 10° NE
Cosmos 1980 Rocket 2.7 04:34:19 10° SSW 04:39:53 60° ESE 04:45:29 10° NE
BREEZE-M DEB (TANK) 3.7 04:39:48 60° SSW 04:39:53 61° S 04:46:45 10° ESE
Cosmos 1726 3.5 04:38:44 10° SSE 04:42:10 38° E 04:45:36 10° NNE
Cosmos 1953 Rocket 4.0 04:42:20 11° N 04:46:35 63° ENE 04:50:57 10° SSE
Cosmos 1697 Rocket 2.5 04:45:12 33° SW 04:47:48 76° WNW 04:53:27 10° NNE
ALOS 2.3 04:43:08 10° NNE 04:47:50 78° ESE 04:52:31 10° S
COSMOS 2455 3.5 04:42:37 10° SSW 04:48:29 57° ESE 04:54:22 10° NE
SKYMED 2 4.2 04:44:34 10° S 04:47:34 39° SSW 04:47:34 39° SSW
Cosmos 2369 Rocket 4.3 04:49:27 11° NNW 04:49:57 12° NNW 04:51:51 10° N
Cosmos 1758 Rocket 3.4 04:50:26 46° NNW 04:51:39 73° W 04:56:03 10° S
Meteor 1-21 Rocket 4.2 04:47:16 10° NNW 04:53:05 68° W 04:58:57 10° S
Cosmos 2218 Rocket 4.4 04:47:28 10° N 04:53:54 68° ENE 05:00:13 10° SSE
USA 32 4.0 04:49:53 10° N 04:55:09 83° E 05:00:25 10° S
Abrixas rocket 3.5 04:56:04 30° SSE 04:56:04 30° SSE 04:58:11 10° SE
Lacrosse 5 rocket 2.1 04:54:58 41° NNW 04:55:35 44° N 04:59:54 10° ENE
Cosmos 1703 3.7 04:53:33 13° N 04:57:00 61° ENE 05:00:54 10° SSE
Okean O Rocket 2.4 04:53:54 10° NNE 04:58:18 55° E 05:02:39 10° S
Cosmos 1538 Rocket 3.9 04:53:37 10° SSW 04:58:59 83° WNW 05:04:19 10° NNE
Cosmos 2227 4.1 04:56:14 27° NW 04:59:24 77° WSW 05:05:01 10° SSE
USA 116 3.9 04:55:11 10° S 04:59:53 70° WSW 05:01:57 30° NNW
Genesis I 3.3 05:00:33 45° NNW 05:01:36 68° NE 05:05:26 10° SE
NOSS 3-2 (C) 4.0 04:57:30 28° NW 05:01:51 69° SW 05:10:06 10° SSE
Cosmos 2154 Rocket 4.2 04:56:22 10° NNW 05:02:13 45° W 05:08:01 10° SSW
STARLINK-43 3.2 05:05:40 63° WNW 05:06:12 78° N 05:09:56 10° ENE
CZ-2C R/B 3.7 05:02:09 10° N 05:04:50 24° NNW 05:04:50 24° NNW
NOSS 2-2 (C) 3.1 05:05:42 41° SW 05:06:58 88° NW 05:11:18 10° NE
STARLINK-60 2.9 05:06:53 74° WNW 05:07:10 88° NNE 05:10:32 10° ESE
Orbus 7S? 3.4 05:07:26 47° WSW 05:07:56 52° SSW 05:13:18 10° SE
Cosmos 1953 2.3 05:07:41 10° SSW 05:11:41 56° WNW 05:15:42 10° N
BREEZE-M DEB (TANK) 3.5 05:10:05 28° SW 05:12:07 65° SSE 05:23:12 10° E
ATLAS 3B R/B 2.6 05:08:15 22° NW 05:12:52 89° NE 05:19:46 10° SE
NOSS 8 (H) 4.0 05:13:44 64° WNW 05:13:52 65° NW 05:17:05 10° NE
Cosmos 2278 Rocket 4.4 05:10:31 10° NNW 05:14:04 17° NNE 05:17:36 10° ENE
CZ-4B DEB 4.1 05:08:55 10° NNE 05:14:30 80° WNW 05:20:02 10° SSW
Cosmos 972 Rocket 4.5 05:09:10 13° NNW 05:14:44 53° WSW 05:20:17 10° S
Cosmos 1825 Rocket 3.7 05:15:11 27° NW 05:17:10 47° W 05:21:19 10° SSW
NOSS 2-2 (E) 3.3 05:16:11 38° WSW 05:17:31 64° NW 05:22:00 10° NE
Cosmos 1959 Rocket 4.4 05:13:15 10° N 05:19:23 86° W 05:25:33 10° S
Cosmos 2058 Rocket 3.6 05:16:03 10° S 05:20:23 61° E 05:24:44 10° NNE
PSLV R/B 4.1 05:16:52 10° N 05:20:30 40° WNW 05:21:08 36° W
USA 215 4.0 05:16:54 10° SSE 05:22:42 34° SW 05:25:48 23° W
MOS 1-B 4.3 05:17:54 10° NNE 05:23:40 67° WNW 05:29:24 10° SSW
NOSS 3-2 (A) 4.5 05:19:33 24° WNW 05:23:41 42° WSW 05:31:20 10° S
NOAA 6 4.0 05:19:54 10° NNE 05:25:08 87° WNW 05:30:20 10° SSW
Cosmos 2322 Rocket 3.6 05:23:29 10° S 05:28:45 41° ESE 05:34:04 10° NE
FALCON 9 DEB 3.1 05:27:33 37° WNW 05:28:49 87° NNE 05:32:20 10° ESE
STARLINK-26 3.4 05:28:10 24° SW 05:30:06 66° SSE 05:33:37 10° ENE
Cosmos 2366 rocket 4.0 05:23:51 10° NNW 05:30:13 76° W 05:36:33 10° S
STARLINK-80 3.3 05:29:11 31° W 05:30:56 83° NNW 05:34:45 10° ENE
Cosmos 1680 Rocket 3.8 05:27:01 10° SSW 05:32:18 71° ESE 05:37:38 10° NNE
Cosmos 1371 Rocket 4.0 05:27:53 10° NNW 05:33:09 84° WSW 05:38:29 10° SSE
Cosmos 2344 3.7 05:28:46 11° WSW 05:36:06 65° NW 05:44:53 10° NE
Cosmos 2263 Rocket 2.3 05:32:29 16° NW 05:36:54 54° WSW 05:42:23 10° S
CENTAUR R/B 3.3 05:30:47 17° NW 05:37:05 59° SW 05:45:33 10° SSE
COSMO-SKYMED 1 4.1 05:34:03 10° SW 05:36:13 18° WSW 05:36:13 18° WSW
Cosmos 2360 4.4 05:32:53 10° SW 05:38:29 52° NW 05:44:06 10° NNE
STARLINK-48 3.4 05:36:47 23° WSW 05:39:08 89° NNW 05:43:02 10° ENE
Cosmos 1606 Rocket 3.7 05:35:14 10° SSW 05:39:33 50° WNW 05:43:53 10° N
ADEOS Rocket 2.7 05:36:09 10° S 05:41:35 67° WSW 05:47:18 10° NNW
STARLINK-33 4.2 05:38:09 10° SW 05:41:38 46° SSE 05:45:08 10° ENE
Cosmos 1726 Rocket 3.6 05:37:15 10° SSW 05:41:38 58° WNW 05:46:02 10° N
STARLINK-34 4.5 05:38:50 10° SW 05:42:43 48° SSE 05:46:36 10° ENE
STARLINK-29 3.1 05:42:03 26° WNW 05:43:55 89° S 05:47:28 10° ESE
STARLINK-24 4.4 05:40:46 10° SW 05:44:39 48° SSE 05:48:33 10° ENE
STARLINK-52 3.1 05:42:59 26° WNW 05:44:52 88° NNE 05:48:23 10° ESE
STARLINK-66 4.1 05:41:51 10° SW 05:45:21 49° SSE 05:48:53 10° ENE
METEOR-M 4.5 05:41:05 10° N 05:46:07 42° WNW 05:51:08 10° SW
Cosmos 158 Rocket 4.5 05:41:43 10° S 05:46:30 60° ESE 05:51:23 10° NNE
SMAP 3.4 05:42:43 10° NNE 05:47:24 71° ESE 05:52:03 10° S
STARLINK-54 4.4 05:43:45 10° SW 05:47:39 50° SSE 05:51:34 10° ENE
Cosmos 1328 4.3 05:44:34 10° NNW 05:48:16 37° W 05:51:56 10° SSW
Cosmos 2112 Rocket 4.2 05:43:33 10° SSW 05:48:54 82° ESE 05:54:18 10° NNE
STARLINK-77 4.4 05:45:13 10° SW 05:49:05 49° SSE 05:53:00 10° ENE
STARLINK-55 4.0 05:45:46 10° SW 05:49:18 52° SSE 05:52:49 10° ENE
Cosmos 1420 Rocket 4.5 05:44:05 10° NNW 05:49:22 63° ENE 05:54:37 10° SE
STARLINK-25 4.4 05:46:52 10° SW 05:50:45 50° SSE 05:54:39 10° ENE
Cosmos 1844 Rocket 3.3 05:45:13 10° NNW 05:50:47 56° NE 05:56:19 10° SE
STARLINK-71 4.2 05:48:40 10° SW 05:52:36 54° SSE 05:56:33 10° ENE
ATLAS 2AS CENTAUR R/B 3.2 05:45:53 10° SW 05:53:56 87° SE 06:01:55 10° NE
STARLINK-79 4.3 05:50:07 10° SW 05:54:02 52° SSE 05:57:58 10° ENE
STARLINK-28 3.8 05:51:05 10° SW 05:54:34 57° SSE 05:58:05 10° ENE
Cosmos 2278 4.2 05:49:22 10° WSW 05:54:42 39° NW 06:00:03 10° NNE
STARLINK-78 4.3 05:51:49 10° SW 05:55:45 53° SSE 05:59:40 10° ENE
Cosmos 2058 3.9 05:52:22 10° N 05:56:28 48° ENE 06:00:33 10° SSE
STARLINK-57 4.2 05:53:32 10° SW 05:57:29 55° SSE 06:01:26 10° ENE
STARLINK-42 4.0 05:55:11 10° SW 05:58:54 57° SSE 06:02:38 10° ENE
STARLINK-49 4.2 05:55:03 10° SW 05:58:59 55° SSE 06:02:56 10° ENE
STARLINK-27 4.2 05:56:44 10° SW 06:00:41 56° SSE 06:04:38 10° ENE
STARLINK-64 4.0 05:57:42 10° SW 06:01:27 58° SSE 06:05:13 10° ENE
STARLINK-74 4.2 05:58:20 10° SW 06:02:17 57° SSE 06:06:15 10° ENE
Cosmos 1624 Rocket 4.1 05:57:19 10° NNW 06:02:27 57° WSW 06:07:31 10° S
Meteor 2-12 Rocket 4.4 05:57:52 10° NNW 06:03:57 70° W 06:10:01 10° S
STARLINK-39 4.1 06:00:01 10° SW 06:03:58 58° SSE 06:07:56 10° ENE
Cosmos 2181 Rocket 4.2 05:58:34 10° SW 06:04:33 48° WNW 06:10:40 10° N
STARLINK 4.1 06:01:40 10° SW 06:05:38 59° SSE 06:09:37 10° ENE
Cosmos 1076 Rocket 3.9 06:01:42 10° N 06:06:06 71° ENE 06:10:27 10° SSE
SL-16 R/B 2.3 06:01:33 10° SSW 06:07:14 85° ESE 06:12:58 10° NNE
AQUARIUS 4.1 06:02:54 10° NNE 06:07:27 83° WNW 06:11:56 10° SSW
STARLINK-69 4.0 06:03:28 10° WSW 06:07:27 63° SSE 06:11:27 10° ENE
Helios 1A Rocket 3.3 06:03:47 10° N 06:07:41 42° WNW 06:11:34 10° SW
Cosmos 2228 3.8 06:04:49 10° SW 06:08:44 30° WNW 06:12:38 10° N
STARLINK-21 4.0 06:04:58 10° SW 06:08:56 62° SSE 06:12:56 10° ENE
H-2A R/B 2.8 06:05:48 10° N 06:09:40 56° WNW 06:13:29 10° SSW
STARLINK-45 3.9 06:06:50 10° WSW 06:10:49 67° SSE 06:14:50 10° ENE
STARLINK-70 3.9 06:08:21 10° WSW 06:12:21 66° SSE 06:16:22 10° ENE
CZ-4B R/B 3.5 06:07:07 10° N 06:12:25 45° WNW 06:17:37 10° SW
STARLINK-76 3.9 06:09:54 10° WSW 06:13:54 65° SSE 06:17:55 10° ENE
Cosmos 1900 4.3 06:09:16 10° NW 06:14:09 72° SW 06:19:02 10° SSE
STARLINK 3.9 06:11:33 10° WSW 06:15:33 66° SSE 06:19:33 10° ENE
Cosmos 1943 Rocket 4.4 06:15:08 10° N 06:16:55 11° NNE 06:18:41 10° NNE
Lacrosse 5 3.5 06:12:14 10° SSW 06:16:55 38° SE 06:21:36 10° ENE
Cosmos 2056 Rocket 3.9 06:11:53 10° NW 06:17:04 46° WSW 06:22:14 10° S
STARLINK-32 3.9 06:13:12 10° WSW 06:17:12 67° SSE 06:21:13 10° ENE
Cosmos 1726 3.4 06:14:47 10° WSW 06:17:33 20° WNW 06:20:19 10° NNW
Cosmos 2360 Rocket 3.3 06:12:07 10° S 06:17:34 50° ESE 06:23:03 10° NE
Cosmos 1844 4.0 06:12:56 10° NNW 06:18:33 70° ENE 06:24:05 10° SE
STARLINK-40 3.9 06:14:52 10° WSW 06:18:52 69° SSE 06:22:53 10° ENE
NOSS 2-2 (D) 4.2 06:15:37 10° W 06:19:07 33° NNW 06:23:21 10° NE
Cosmos 1867 4.4 06:14:34 10° NW 06:19:52 46° NE 06:25:07 10° ESE
Cosmos 371 Rocket 4.5 06:15:19 10° NNW 06:19:57 42° ENE 06:24:33 10° SE
STARLINK-44 3.8 06:16:31 10° WSW 06:20:31 70° SSE 06:24:32 10° ENE
STARLINK-37 3.8 06:18:15 10° WSW 06:22:16 73° SSE 06:26:18 10° ENE
STARLINK-36 3.8 06:19:48 10° WSW 06:23:49 72° SSE 06:27:51 10° ENE
Cosmos 1300 2.6 06:20:19 10° SSW 06:24:08 77° W 06:27:59 10° N
Cosmos 1980 Rocket 2.9 06:19:08 10° WSW 06:24:15 33° NW 06:29:23 10° NNE
ALOS 3.6 06:21:34 10° NNW 06:24:43 18° WNW 06:27:53 10° W
Cosmos 923 Rocket 4.4 06:19:58 10° SW 06:24:56 41° NW 06:29:59 10° NNE
STARLINK-68 3.7 06:21:38 10° WSW 06:25:40 76° SSE 06:29:41 10° ENE
STARLINK-61 3.5 06:22:11 10° WSW 06:26:08 90° WSW 06:30:07 10° ENE
Cosmos 1908 4.2 06:23:39 10° SW 06:27:02 27° WNW 06:30:27 10° N
STARLINK-63 3.7 06:23:11 10° WSW 06:27:12 76° SSE 06:31:15 10° ENE
STARLINK-35 3.7 06:24:44 10° WSW 06:28:45 75° SSE 06:32:47 10° ENE
STARLINK-51 3.7 06:26:24 10° WSW 06:30:25 77° SSE 06:34:27 10° ENE
Abrixas rocket 4.5 06:29:08 10° WSW 06:30:34 13° SSW 06:32:00 10° S
CZ-2C R/B 3.1 06:26:30 10° SSE 06:31:43 65° ENE 06:37:05 10° N
STARLINK-30 3.7 06:28:03 10° WSW 06:32:05 78° SSE 06:36:07 10° ENE
Cosmos 1697 Rocket 3.9 06:28:28 10° W 06:32:44 22° NW 06:37:01 10° NNE
Okean-O 2.6 06:28:37 10° NNE 06:33:05 86° WNW 06:37:32 10° SSW
STARLINK-72 3.7 06:29:42 10° WSW 06:33:43 79° SSE 06:37:46 10° ENE
FALCON 9 DEB 1.6 06:32:28 10° WSW 06:34:04 60° SSE 06:35:40 10° ENE
Okean O Rocket 2.8 06:30:51 10° N 06:34:21 23° WNW 06:37:49 10° WSW
COSMOS 2455 3.3 06:29:00 10° WSW 06:34:40 41° NW 06:40:22 10° NNE
Feng Yun 1-1 Rocket 4.4 06:29:05 10° NNE 06:34:59 68° WNW 06:40:49 10° SSW
STARLINK-50 3.7 06:31:21 10° WSW 06:35:23 80° SSE 06:39:25 10° ENE
Lacrosse 5 rocket 2.1 06:30:59 10° WNW 06:35:26 49° NNE 06:39:42 10° E
STARLINK-75 3.5 06:32:00 10° WSW 06:35:52 85° SSE 06:39:45 10° ENE
Cosmos 2369 Rocket 4.3 06:34:30 10° N 06:36:47 12° NNE 06:39:04 10° NE
STARLINK-59 3.7 06:33:06 10° WSW 06:37:08 82° SSE 06:41:11 10° ENE
Cosmos 1812 Rocket 3.5 06:33:44 10° SSW 06:38:05 75° W 06:42:31 10° N
STARLINK-56 3.7 06:34:40 10° WSW 06:38:42 82° SSE 06:42:44 10° ENE
Cosmos 1340 Rocket 2.9 06:34:52 10° S 06:38:46 84° ESE 06:42:43 10° NNE
CZ-4 R/B 2.0 06:35:06 10° NNE 06:39:20 68° ESE 06:43:32 10° S
Cosmos 1821 Rocket 4.1 06:33:24 10° NNW 06:39:28 58° W 06:45:26 10° S
Cosmos 1455 4.1 06:36:31 10° SSE 06:40:04 36° E 06:43:39 10° NNE
Starlink (trailer) 3.7 06:36:19 10° WSW 06:40:20 83° SSE 06:44:24 10° ENE
Cosmos 2151 3.5 06:36:40 10° N 06:40:56 65° ENE 06:45:11 10° SSE
Nadezhda 3 Rocket 4.0 06:35:18 10° SSW 06:41:26 70° WNW 06:47:38 10° N
NOAA 12 4.1 06:37:05 10° N 06:42:20 67° WNW 06:47:35 10° SSW
